South Lake Tahoe, CA

5:51 PM PDT on July 27, 2017 (GMT -0700)
Lake Tahoe

Weather History for KTVL - July, 2014

Change the Weather History Date:

Friday, July 18, 2014

  Actual Average Record
Temperature  
Mean Temperature 69 °F 62 °F  
Max Temperature 87 °F 82 °F 93 °F (1988)
Min Temperature 50 °F 42 °F 31 °F (1993)
Degree Days  
Heating Degree Days 0 4  
Month to date heating degree days 2 90  
Since 1 June heating degree days 212 400  
Since 1 July heating degree days 2 90  
Cooling Degree Days 4 1  
Month to date cooling degree days 65 6  
Year to date cooling degree days 66 7  
Since 1 June cooling degree days 66 7  
Growing Degree Days 18 (Base 50)    
Moisture  
Dew Point 54 °F    
Average Humidity 58    
Maximum Humidity 90    
Minimum Humidity 25    
Precipitation  
Precipitation 0.15 in - 0.27 in (2002)
Month to date precipitation 0.28  
Year to date precipitation 12.70  
Sea Level Pressure  
Sea Level Pressure 30.04 in    
Wind  
Wind Speed 3 mph (NNE)    
Max Wind Speed 17 mph    
Max Gust Speed 25 mph    
Visibility 9 miles    
Events Rain    
T = Trace of Precipitation, MM = Missing Value Source: NWS Daily Summary

Daily Weather History Graph

Daily Weather History Graph

Search for Another Location

Airport or City:

Trip Planner

Search our weather history database for the weather conditions in past years. The results will help you decide how hot, cold, wet, or windy it might be!

Date:

Astronomy

Jul. 18, 2014 Rise Set
Actual Time 5:49 AM PDT 8:22 PM PDT
Civil Twilight 5:18 AM PDT 8:53 PM PDT
Nautical Twilight 4:40 AM PDT 9:31 PM PDT
Astronomical Twilight 3:57 AM PDT 10:14 PM PDT
Moon No Moon Rise 1:07 PM PDT (7/18)
Length of Visible Light 15h 35m
Length of Day
14h 33m
Waning Gibbous, 53% of the Moon is Illuminated
Jul 18
Waning Gibbous
Jul 18
Last Quarter
Jul 26
New
Aug 3
First Quarter
Aug 10
Full

Hourly Weather History & Observations

Time (PDT) Temp. Heat Index Dew Point Humidity Pressure Visibility Wind Dir Wind Speed Gust Speed Precip Events Conditions
12:53 AM 57.9 °F - 53.1 °F 84% 30.00 in 10.0 mi Calm Calm - N/A   Clear
2:53 AM 54.0 °F - 48.9 °F 83% 30.02 in 10.0 mi Calm Calm - N/A   Clear
4:53 AM 52.0 °F - 46.9 °F 83% 30.06 in 10.0 mi Calm Calm - N/A   Clear
6:53 AM 53.1 °F - 48.0 °F 83% 30.06 in 10.0 mi South 3.5 mph - N/A   Clear
8:53 AM 68.0 °F - 55.0 °F 63% 30.04 in 10.0 mi NNE 3.5 mph - N/A   Clear
9:53 AM 72.0 °F - 50.0 °F 46% 30.03 in 10.0 mi Variable 3.5 mph - N/A   Clear
10:53 AM 77.0 °F - 55.9 °F 48% 30.01 in 10.0 mi NE 9.2 mph - N/A   Clear
11:53 AM 80.1 °F 80.1 °F 55.0 °F 42% 30.00 in 10.0 mi Variable 5.8 mph - N/A   Clear
12:53 PM 82.0 °F - 51.1 °F 34% 29.99 in 10.0 mi Variable 4.6 mph - N/A   Clear
1:53 PM 84.0 °F - 48.0 °F 28% 29.99 in 10.0 mi Variable 5.8 mph - N/A   Clear
2:53 PM 84.9 °F - 44.1 °F 24% 29.97 in 10.0 mi NNE 8.1 mph 16.1 mph N/A   Clear
3:53 PM 81.0 °F - 48.0 °F 31% 29.98 in 10.0 mi Calm Calm - N/A   Partly Cloudy
4:53 PM 84.0 °F - 45.0 °F 25% 29.97 in 10.0 mi NNE 5.8 mph - N/A   Partly Cloudy
5:53 PM 84.0 °F - 50.0 °F 31% 30.00 in 7.0 mi ENE 13.8 mph 24.2 mph N/A   Overcast
6:07 PM 66.9 °F - 61.0 °F 81% 30.20 in 2.5 mi Calm Calm - 0.10 in Rain Light Rain
6:15 PM 66.0 °F - 60.1 °F 81% 30.20 in 1.8 mi Variable 3.5 mph - 0.14 in Rain Light Rain
6:18 PM 66.0 °F - 61.0 °F 84% 30.20 in 3.0 mi Variable 3.5 mph - 0.15 in Rain Light Rain
6:27 PM 66.0 °F - 60.1 °F 81% 30.20 in 10.0 mi Calm Calm - 0.15 in Rain Light Rain
6:53 PM 69.1 °F - 64.0 °F 84% 30.02 in 10.0 mi Calm Calm - 0.15 in   Clear
7:53 PM 68.0 °F - 63.0 °F 84% 30.01 in 10.0 mi West 3.5 mph - N/A   Clear
8:53 PM 64.9 °F - 60.1 °F 84% 30.00 in 10.0 mi Calm Calm - N/A   Clear
9:53 PM 63.0 °F - 59.0 °F 87% 30.01 in 10.0 mi Calm Calm - N/A   Clear
10:53 PM 60.1 °F - 55.0 °F 83% 30.01 in 10.0 mi Calm Calm - N/A   Clear
11:53 PM 57.9 °F - 54.0 °F 87% 30.02 in 10.0 mi Calm Calm - N/A   Clear